THOR ABLESTAR DEB, 329

Orbit data source: Space-Track

THOR ABLESTAR DEB, 329 is space debris in LEO originally from a launch on Thu, 29 Jun 1961 UTC launched from the Air Force Eastern Test Range (AFETR). Debris objects in space refer to the collection of defunct objects orbiting the Earth. Examples of debris include non-operational satellites, rocket bodies, and fragments generated from explosions, collisions, or faulty payload assembly.

Loading next visibility...
Identifier
329, 1961-015DF
Orbit
LEO
Country
Flag of USUS
Related business
Manufacturer
Unknown
Mission
Spacecraft
Bus & Motor
Unknown
Mass
Unknown
Launch date (UTC)
1961-06-29 (65 years ago)
Launch vehicle
Unknown
Launch site
Air Force Eastern Test Range (AFETR)
Object type
Payload
Rocket body
Debris
Shape & HBR
Unknown shape, 0.1 m
Radar Cross Section
Small (<0.1 m²)

Expand to show TLE details & history
Last TLE update: 19 hours ago

TLE from 19 hours ago
0 THOR ABLESTAR DEB
1 00329U 61015DF  26126.32580557  .00000079  00000-0  17526-3 0  9999
2 00329  66.7782 112.5810 0112624  19.4925  99.3846 13.66114586224295
Epoch: 2026-05-06T07:49Z
TLE epoch observation values (Epoch: 2026-05-06T07:49:09.601Z)
Latitude
52.74004°
Longitude
-83.03001°
Altitude
1,035.782 km
Speed
7.332 km/s
True Right ascension
17h 13m 47s
True Declination
52° 34' 49"
Sunlit
Object was in daylight at epoch
Visualization orbit readout
Latitude
Unknown
Longitude
Unknown
Altitude
Unknown
Speed
Unknown
Apparent Right ascension
Unknown
Apparent Declination
Unknown
Sunlit
N/A
Visualization observer readout
Local Sidereal Time
10:48:13
Azimuth
Unknown
Elevation
Unknown
Doppler factor
Unknown
Orbital elements
Apogee altitude
1,095.198 km
Perigee altitude
928.738 km
Semi-major axis
7,390.105 km
Eccentricity
0.01126
Inclination
66.7782°
RAAN
112.581°
Arg. of periapsis
19.4925°
True anomaly
100.65488°
Mean anomaly
99.3846°
Eccentric anomaly
100.02005°
Mean motion
3.41639 °/min
Orbital period
105.37 mins
BSTAR
0.00017526
Loading maneuver chart data...
Computing Atmospheric mass density...
Loading historical data...
Loading historical data...
Loading historical data...
Loading historical data...
Loading historical data...
Loading historical data...
Loading historical data...

Documentation

Showing up to 5 results
|